Location: Tamke-Allan Observatory
(35.8325°N, 84.6178°W)
Time: 18:19:32
(UTC-05:00)

OTV 5 (USA 277) - Visible Passes

Search period start: 21 November 2017 00:00
Search period end: 01 December 2017 00:00
Orbit: 404 x 417 km, 43.0° (Epoch: 07 September)

Date Brightness Start Highest point End Pass type
(mag) Time Alt. Az. Time Alt. Az. Time Alt. Az.
21 Nov ? 05:44:28 66° SSW 05:44:28 66° SSW 05:47:41 10° SE visible
22 Nov ? 04:56:03 15° ESE 04:56:03 15° ESE 04:56:41 10° ESE visible
22 Nov ? 06:28:50 12° WSW 06:30:22 15° SW 06:32:19 10° S visible
23 Nov ? 05:40:29 20° S 05:40:29 20° S 05:42:10 10° SSE visible
28 Nov ? 19:37:18 10° SSW 19:37:30 11° SSW 19:37:30 11° SSW visible
29 Nov ? 18:47:01 10° S 18:49:10 17° SE 18:49:10 17° SE visible
30 Nov ? 19:31:50 10° SW 19:33:31 27° SW 19:33:31 27° SW visible
